Time,TemperatureF,DewpointF,PressureIn,WindDirection,WindDirectionDegrees,WindSpeedMPH,WindSpeedGustMPH,Humidity,HourlyPrecipIn,Conditions,Clouds,dailyrainin,SoftwareType,DateUTC
2013-03-09 00:01:00,36.0,34.0,-100.00,ESE,120,15.0,18.0,91,0.25,,,-99.99,,2013-03-09 06:01:00,
2013-03-09 00:11:00,36.0,34.0,-100.00,SE,125,13.0,21.0,91,0.24,,,-99.99,,2013-03-09 06:11:00,
2013-03-09 00:22:00,36.0,34.0,-100.00,ESE,120,16.0,18.0,92,0.20,,,-99.99,,2013-03-09 06:22:00,
2013-03-09 00:32:00,37.0,35.0,-100.00,SE,125,15.0,19.0,92,0.00,,,-99.99,,2013-03-09 06:32:00,
2013-03-09 00:42:00,37.0,35.0,-100.00,SE,125,15.0,19.0,92,0.00,,,-99.99,,2013-03-09 06:42:00,
2013-03-09 00:51:00,37.0,35.0,-100.00,ESE,120,15.0,20.0,91,0.00,,,-99.99,,2013-03-09 06:51:00,
2013-03-09 01:01:00,37.0,35.0,-100.00,ESE,120,15.0,20.0,91,0.00,,,-99.99,,2013-03-09 07:01:00,
2013-03-09 01:11:00,37.0,35.0,-100.00,SE,130,12.0,18.0,91,0.28,,,-99.99,,2013-03-09 07:11:00,
2013-03-09 01:21:00,37.0,35.0,-100.00,SE,135,13.0,17.0,91,0.17,,,-99.99,,2013-03-09 07:21:00,
2013-03-09 01:31:00,37.0,35.0,-100.00,SE,135,12.0,17.0,90,0.31,,,-99.99,,2013-03-09 07:31:00,
2013-03-09 01:41:00,37.0,35.0,-100.00,SE,135,12.0,17.0,90,0.31,,,-99.99,,2013-03-09 07:41:00,
2013-03-09 01:51:00,37.0,35.0,-100.00,SE,135,14.0,18.0,90,0.33,,,-99.99,,2013-03-09 07:51:00,
2013-03-09 02:01:00,37.0,35.0,-100.00,SE,135,14.0,18.0,90,0.33,,,-99.99,,2013-03-09 08:01:00,
2013-03-09 02:11:00,37.0,35.0,-100.00,SE,135,14.0,19.0,90,0.52,,,-99.99,,2013-03-09 08:11:00,
2013-03-09 02:21:00,37.0,35.0,-100.00,SE,140,14.0,20.0,90,0.62,,,-99.99,,2013-03-09 08:21:00,
2013-03-09 02:32:00,37.0,35.0,-100.00,SE,140,13.0,20.0,91,0.00,,,-99.99,,2013-03-09 08:32:00,
2013-03-09 02:41:00,37.0,35.0,-100.00,SE,140,13.0,20.0,91,0.00,,,-99.99,,2013-03-09 08:41:00,
2013-03-09 02:52:00,37.0,35.0,-100.00,SE,140,11.0,17.0,91,0.30,,,-99.99,,2013-03-09 08:52:00,
2013-03-09 03:01:00,37.0,35.0,-100.00,SE,140,11.0,17.0,91,0.30,,,-99.99,,2013-03-09 09:01:00,
2013-03-09 03:12:00,37.0,35.0,-100.00,SSE,150,6.0,15.0,91,0.45,,,-99.99,,2013-03-09 09:12:00,
2013-03-09 03:21:00,37.0,35.0,-100.00,SE,135,7.0,10.0,92,0.31,,,-99.99,,2013-03-09 09:21:00,
2013-03-09 03:31:00,37.0,35.0,-100.00,SE,130,10.0,13.0,93,0.43,,,-99.99,,2013-03-09 09:31:00,
2013-03-09 03:41:00,37.0,35.0,-100.00,SE,130,10.0,13.0,93,0.43,,,-99.99,,2013-03-09 09:41:00,
2013-03-09 03:52:00,37.0,35.0,-100.00,ESE,110,9.0,11.0,94,0.00,,,-99.99,,2013-03-09 09:52:00,
2013-03-09 04:01:00,37.0,35.0,-100.00,ESE,110,9.0,11.0,94,0.00,,,-99.99,,2013-03-09 10:01:00,
2013-03-09 04:11:00,37.0,35.0,-100.00,ESE,110,9.0,12.0,94,0.00,,,-99.99,,2013-03-09 10:11:00,
2013-03-09 04:21:00,37.0,35.0,-100.00,ESE,110,8.0,12.0,95,0.00,,,-99.99,,2013-03-09 10:21:00,
2013-03-09 04:31:00,36.0,36.0,-100.00,ESE,115,11.0,14.0,96,0.00,,,-99.99,,2013-03-09 10:31:00,
2013-03-09 04:41:00,36.0,36.0,-100.00,ESE,115,11.0,14.0,96,0.00,,,-99.99,,2013-03-09 10:41:00,
2013-03-09 04:51:00,37.0,36.0,-100.00,SE,125,12.0,16.0,96,0.00,,,-99.99,,2013-03-09 10:51:00,
2013-03-09 05:01:00,37.0,36.0,-100.00,SE,125,12.0,16.0,96,0.00,,,-99.99,,2013-03-09 11:01:00,
2013-03-09 05:11:00,37.0,36.0,-100.00,SE,125,12.0,16.0,96,0.00,,,-99.99,,2013-03-09 11:11:00,
2013-03-09 05:21:00,37.0,36.0,-100.00,ESE,120,12.0,16.0,96,0.00,,,-99.99,,2013-03-09 11:21:00,
2013-03-09 05:32:00,37.0,36.0,-100.00,SE,130,13.0,18.0,97,0.00,,,-99.99,,2013-03-09 11:32:00,
2013-03-09 05:41:00,37.0,36.0,-100.00,SE,130,13.0,18.0,97,0.00,,,-99.99,,2013-03-09 11:41:00,
2013-03-09 05:52:00,37.0,36.0,-100.00,SE,130,14.0,21.0,97,0.00,,,-99.99,,2013-03-09 11:52:00,
2013-03-09 06:01:00,37.0,36.0,-100.00,SE,130,14.0,21.0,97,0.00,,,-99.99,,2013-03-09 12:01:00,
2013-03-09 06:11:00,37.0,36.0,-100.00,SE,125,14.0,19.0,97,0.00,,,-99.99,,2013-03-09 12:11:00,
2013-03-09 06:21:00,37.0,36.0,-100.00,SE,130,14.0,17.0,97,0.00,,,-99.99,,2013-03-09 12:21:00,
2013-03-09 06:32:00,37.0,36.0,-100.00,SE,130,15.0,18.0,97,0.00,,,-99.99,,2013-03-09 12:32:00,
2013-03-09 06:42:00,37.0,36.0,-100.00,SE,130,15.0,18.0,97,0.00,,,-99.99,,2013-03-09 12:42:00,
2013-03-09 06:52:00,37.0,36.0,-100.00,SE,145,12.0,16.0,97,0.00,,,-99.99,,2013-03-09 12:52:00,
2013-03-09 07:02:00,37.0,36.0,-100.00,SE,145,12.0,16.0,97,0.00,,,-99.99,,2013-03-09 13:02:00,
2013-03-09 07:11:00,37.0,36.0,-100.00,SE,145,16.0,19.0,97,0.00,,,-99.99,,2013-03-09 13:11:00,
2013-03-09 07:21:00,37.0,36.0,-100.00,SE,135,13.0,20.0,97,0.00,,,-99.99,,2013-03-09 13:21:00,
2013-03-09 07:32:00,37.0,37.0,-100.00,SE,130,13.0,21.0,97,0.00,,,-99.99,,2013-03-09 13:32:00,
2013-03-09 07:42:00,37.0,37.0,-100.00,SE,130,13.0,21.0,97,0.00,,,-99.99,,2013-03-09 13:42:00,
2013-03-09 07:52:00,38.0,37.0,-100.00,SE,135,16.0,21.0,97,0.00,,,-99.99,,2013-03-09 13:52:00,
2013-03-09 08:01:00,38.0,37.0,-100.00,SE,135,16.0,21.0,97,0.00,,,-99.99,,2013-03-09 14:01:00,
2013-03-09 08:11:00,38.0,37.0,-100.00,SE,145,15.0,20.0,97,0.00,,,-99.99,,2013-03-09 14:11:00,
2013-03-09 08:21:00,38.0,37.0,-100.00,SE,140,14.0,19.0,97,0.00,,,-99.99,,2013-03-09 14:21:00,
2013-03-09 08:32:00,38.0,37.0,-100.00,SE,140,13.0,20.0,97,0.00,,,-99.99,,2013-03-09 14:32:00,
2013-03-09 08:41:00,38.0,37.0,-100.00,SE,140,13.0,20.0,97,0.00,,,-99.99,,2013-03-09 14:41:00,
2013-03-09 08:52:00,38.0,37.0,-100.00,SE,135,13.0,19.0,97,0.00,,,-99.99,,2013-03-09 14:52:00,
2013-03-09 09:01:00,38.0,37.0,-100.00,SE,135,13.0,19.0,97,0.00,,,-99.99,,2013-03-09 15:01:00,
2013-03-09 09:11:00,38.0,37.0,-100.00,SE,145,14.0,19.0,97,0.00,,,-99.99,,2013-03-09 15:11:00,
2013-03-09 09:22:00,37.0,37.0,-100.00,SE,140,12.0,19.0,97,0.00,,,-99.99,,2013-03-09 15:22:00,
2013-03-09 09:32:00,38.0,37.0,-100.00,SE,135,14.0,21.0,97,0.00,,,-99.99,,2013-03-09 15:32:00,
2013-03-09 09:42:00,38.0,37.0,-100.00,SE,135,14.0,21.0,97,0.00,,,-99.99,,2013-03-09 15:42:00,
2013-03-09 09:52:00,38.0,37.0,-100.00,SE,140,14.0,19.0,97,0.00,,,-99.99,,2013-03-09 15:52:00,
2013-03-09 10:01:00,38.0,37.0,-100.00,SE,140,14.0,19.0,97,0.00,,,-99.99,,2013-03-09 16:01:00,
2013-03-09 10:11:00,38.0,37.0,-100.00,SE,140,14.0,19.0,97,0.00,,,-99.99,,2013-03-09 16:11:00,
2013-03-09 10:21:00,38.0,38.0,-100.00,SE,140,14.0,-999.0,97,0.00,,,-99.99,,2013-03-09 16:21:00,
2013-03-09 10:32:00,38.0,38.0,-100.00,SE,145,14.0,21.0,97,0.13,,,-99.99,,2013-03-09 16:32:00,
2013-03-09 10:41:00,38.0,38.0,-100.00,SE,145,14.0,21.0,97,0.13,,,-99.99,,2013-03-09 16:41:00,
2013-03-09 10:52:00,39.0,38.0,-100.00,SSE,150,15.0,22.0,97,0.34,,,-99.99,,2013-03-09 16:52:00,
2013-03-09 11:01:00,39.0,38.0,-100.00,SSE,150,15.0,22.0,97,0.34,,,-99.99,,2013-03-09 17:01:00,
2013-03-09 11:11:00,39.0,38.0,-100.00,SSE,150,14.0,19.0,97,0.40,,,-99.99,,2013-03-09 17:11:00,
2013-03-09 11:22:00,39.0,38.0,-100.00,SSE,150,12.0,18.0,97,0.59,,,-99.99,,2013-03-09 17:22:00,
2013-03-09 11:32:00,39.0,38.0,-100.00,SE,145,16.0,21.0,97,0.68,,,-99.99,,2013-03-09 17:32:00,
2013-03-09 11:42:00,39.0,38.0,-100.00,SE,145,16.0,21.0,97,0.68,,,-99.99,,2013-03-09 17:42:00,
2013-03-09 11:52:00,39.0,38.0,-100.00,SE,145,16.0,22.0,97,0.78,,,-99.99,,2013-03-09 17:52:00,
2013-03-09 12:01:00,39.0,38.0,-100.00,SE,145,16.0,22.0,97,0.78,,,-99.99,,2013-03-09 18:01:00,
2013-03-09 12:11:00,39.0,38.0,-100.00,SE,145,14.0,20.0,97,0.76,,,-99.99,,2013-03-09 18:11:00,
2013-03-09 12:21:00,39.0,38.0,-100.00,SE,145,13.0,22.0,97,0.78,,,-99.99,,2013-03-09 18:21:00,
2013-03-09 12:32:00,39.0,38.0,-100.00,SE,140,15.0,18.0,97,0.95,,,-99.99,,2013-03-09 18:32:00,
2013-03-09 12:42:00,39.0,38.0,-100.00,SE,140,15.0,18.0,97,0.95,,,-99.99,,2013-03-09 18:42:00,
2013-03-09 12:52:00,39.0,38.0,-100.00,SE,145,12.0,18.0,97,0.64,,,-99.99,,2013-03-09 18:52:00,
2013-03-09 13:01:00,39.0,38.0,-100.00,SE,145,12.0,18.0,97,0.64,,,-99.99,,2013-03-09 19:01:00,
2013-03-09 13:11:00,39.0,38.0,-100.00,SSE,155,15.0,22.0,97,0.44,,,-99.99,,2013-03-09 19:11:00,
2013-03-09 13:22:00,39.0,38.0,-100.00,SSE,150,13.0,19.0,97,0.71,,,-99.99,,2013-03-09 19:22:00,
2013-03-09 13:32:00,39.0,38.0,-100.00,SE,145,13.0,20.0,97,0.00,,,-99.99,,2013-03-09 19:32:00,
2013-03-09 13:42:00,39.0,38.0,-100.00,SE,145,13.0,20.0,97,0.00,,,-99.99,,2013-03-09 19:42:00,
2013-03-09 13:51:00,40.0,39.0,-100.00,SE,135,21.0,28.0,97,0.00,,,-99.99,,2013-03-09 19:51:00,
2013-03-09 14:01:00,40.0,39.0,-100.00,SE,135,21.0,28.0,97,0.00,,,-99.99,,2013-03-09 20:01:00,
2013-03-09 14:11:00,40.0,39.0,-100.00,SE,145,18.0,24.0,97,0.00,,,-99.99,,2013-03-09 20:11:00,
2013-03-09 14:21:00,40.0,39.0,-100.00,SE,145,10.0,20.0,97,0.00,,,-99.99,,2013-03-09 20:21:00,
2013-03-09 14:32:00,40.0,39.0,-100.00,SSE,150,8.0,13.0,97,0.10,,,-99.99,,2013-03-09 20:32:00,
2013-03-09 14:42:00,40.0,39.0,-100.00,SSE,150,8.0,13.0,97,0.10,,,-99.99,,2013-03-09 20:42:00,
2013-03-09 14:52:00,40.0,40.0,-100.00,SE,140,10.0,16.0,97,0.00,,,-99.99,,2013-03-09 20:52:00,
2013-03-09 15:02:00,40.0,40.0,-100.00,SE,140,10.0,16.0,97,0.00,,,-99.99,,2013-03-09 21:02:00,
2013-03-09 15:12:00,41.0,40.0,-100.00,SE,135,11.0,16.0,97,0.00,,,-99.99,,2013-03-09 21:12:00,
2013-03-09 15:21:00,40.0,40.0,-100.00,South,170,9.0,11.0,97,0.00,,,-99.99,,2013-03-09 21:21:00,
2013-03-09 15:32:00,40.0,40.0,-100.00,SSE,165,7.0,12.0,97,0.00,,,-99.99,,2013-03-09 21:32:00,
2013-03-09 15:42:00,40.0,40.0,-100.00,SSE,155,7.0,11.0,96,0.00,,,-99.99,,2013-03-09 21:42:00,
2013-03-09 15:52:00,40.0,40.0,-100.00,SE,130,9.0,14.0,96,0.17,,,-99.99,,2013-03-09 21:52:00,
2013-03-09 16:01:00,40.0,40.0,-100.00,SE,130,9.0,14.0,96,0.17,,,-99.99,,2013-03-09 22:01:00,
2013-03-09 16:11:00,40.0,39.0,-100.00,SE,135,9.0,11.0,96,0.18,,,-99.99,,2013-03-09 22:11:00,
2013-03-09 16:21:00,40.0,39.0,-100.00,ESE,110,10.0,12.0,96,0.08,,,-99.99,,2013-03-09 22:21:00,
2013-03-09 16:32:00,40.0,40.0,-100.00,West,265,7.0,9.0,96,0.10,,,-99.99,,2013-03-09 22:32:00,
2013-03-09 16:41:00,40.0,40.0,-100.00,West,265,7.0,9.0,96,0.10,,,-99.99,,2013-03-09 22:41:00,
2013-03-09 16:51:00,41.0,40.0,-100.00,SW,235,1.0,3.0,96,0.07,,,-99.99,,2013-03-09 22:51:00,
2013-03-09 17:01:00,41.0,40.0,-100.00,SW,235,1.0,3.0,96,0.07,,,-99.99,,2013-03-09 23:01:00,
2013-03-09 17:11:00,40.0,39.0,-100.00,SE,145,1.0,2.0,96,0.00,,,-99.99,,2013-03-09 23:11:00,
2013-03-09 17:21:00,40.0,39.0,-100.00,ESE,115,6.0,7.0,96,0.08,,,-99.99,,2013-03-09 23:21:00,
2013-03-09 17:32:00,40.0,39.0,-100.00,ESE,115,6.0,7.0,96,0.00,,,-99.99,,2013-03-09 23:32:00,
2013-03-09 17:41:00,40.0,39.0,-100.00,ESE,115,6.0,7.0,96,0.00,,,-99.99,,2013-03-09 23:41:00,
2013-03-09 17:52:00,40.0,39.0,-100.00,SE,130,7.0,9.0,96,0.08,,,-99.99,,2013-03-09 23:52:00,
2013-03-09 18:01:00,40.0,39.0,-100.00,SE,130,7.0,9.0,96,0.08,,,-99.99,,2013-03-10 00:01:00,
2013-03-09 18:11:00,40.0,39.0,-100.00,ESE,120,7.0,9.0,96,0.08,,,-99.99,,2013-03-10 00:11:00,
2013-03-09 18:22:00,40.0,39.0,-100.00,ESE,105,6.0,10.0,96,0.11,,,-99.99,,2013-03-10 00:22:00,
2013-03-09 18:32:00,40.0,39.0,-100.00,ESE,115,7.0,10.0,96,0.08,,,-99.99,,2013-03-10 00:32:00,
2013-03-09 18:42:00,40.0,39.0,-100.00,ESE,115,7.0,10.0,96,0.08,,,-99.99,,2013-03-10 00:42:00,
2013-03-09 18:51:00,40.0,39.0,-100.00,SE,145,4.0,9.0,96,0.10,,,-99.99,,2013-03-10 00:51:00,
2013-03-09 19:01:00,40.0,39.0,-100.00,SE,145,4.0,9.0,96,0.10,,,-99.99,,2013-03-10 01:01:00,
2013-03-09 19:11:00,40.0,39.0,-100.00,SE,135,6.0,7.0,96,0.10,,,-99.99,,2013-03-10 01:11:00,
2013-03-09 19:21:00,40.0,39.0,-100.00,ESE,115,6.0,7.0,96,0.10,,,-99.99,,2013-03-10 01:21:00,
2013-03-09 19:31:00,40.0,39.0,-100.00,ESE,105,9.0,12.0,96,0.00,,,-99.99,,2013-03-10 01:31:00,
2013-03-09 19:41:00,40.0,39.0,-100.00,ESE,105,9.0,12.0,96,0.00,,,-99.99,,2013-03-10 01:41:00,
2013-03-09 19:51:00,40.0,39.0,-100.00,ESE,115,13.0,18.0,96,0.10,,,-99.99,,2013-03-10 01:51:00,
2013-03-09 20:01:00,40.0,39.0,-100.00,ESE,115,13.0,18.0,96,0.10,,,-99.99,,2013-03-10 02:01:00,
2013-03-09 20:11:00,40.0,39.0,-100.00,SE,125,11.0,18.0,96,0.00,,,-99.99,,2013-03-10 02:11:00,
2013-03-09 20:22:00,40.0,40.0,-100.00,SE,130,13.0,18.0,96,0.00,,,-99.99,,2013-03-10 02:22:00,
2013-03-09 20:32:00,41.0,40.0,-100.00,SE,130,9.0,16.0,96,0.00,,,-99.99,,2013-03-10 02:32:00,
2013-03-09 20:42:00,41.0,40.0,-100.00,SE,130,9.0,16.0,96,0.00,,,-99.99,,2013-03-10 02:42:00,
2013-03-09 20:52:00,41.0,41.0,-100.00,ESE,110,6.0,9.0,96,0.00,,,-99.99,,2013-03-10 02:52:00,
2013-03-09 21:01:00,41.0,41.0,-100.00,ESE,110,6.0,9.0,96,0.00,,,-99.99,,2013-03-10 03:01:00,
2013-03-09 21:11:00,41.0,41.0,-100.00,ESE,110,6.0,9.0,96,0.00,,,-99.99,,2013-03-10 03:11:00,
2013-03-09 21:22:00,41.0,40.0,-100.00,North,355,5.0,6.0,96,0.00,,,-99.99,,2013-03-10 03:22:00,
2013-03-09 21:32:00,39.0,38.0,-100.00,North,0,7.0,10.0,96,0.00,,,-99.99,,2013-03-10 03:32:00,
2013-03-09 21:42:00,39.0,38.0,-100.00,North,0,7.0,10.0,96,0.00,,,-99.99,,2013-03-10 03:42:00,
2013-03-09 21:52:00,39.0,38.0,-100.00,North,350,6.0,11.0,96,0.00,,,-99.99,,2013-03-10 03:52:00,
2013-03-09 22:01:00,39.0,38.0,-100.00,North,350,6.0,11.0,96,0.00,,,-99.99,,2013-03-10 04:01:00,
2013-03-09 22:11:00,38.0,38.0,-100.00,NNE,15,6.0,11.0,96,0.00,,,-99.99,,2013-03-10 04:11:00,
2013-03-09 22:21:00,38.0,37.0,-100.00,North,0,6.0,9.0,96,0.00,,,-99.99,,2013-03-10 04:21:00,
2013-03-09 22:31:00,38.0,37.0,-100.00,NNE,20,5.0,10.0,96,0.00,,,-99.99,,2013-03-10 04:31:00,
2013-03-09 22:41:00,38.0,37.0,-100.00,NNE,20,5.0,10.0,96,0.00,,,-99.99,,2013-03-10 04:41:00,
2013-03-09 22:51:00,37.0,36.0,-100.00,NNE,15,6.0,9.0,96,0.00,,,-99.99,,2013-03-10 04:51:00,
2013-03-09 23:01:00,37.0,36.0,-100.00,NNE,15,6.0,9.0,96,0.00,,,-99.99,,2013-03-10 05:01:00,
2013-03-09 23:11:00,37.0,36.0,-100.00,NNE,15,6.0,9.0,96,0.00,,,-99.99,,2013-03-10 05:11:00,
2013-03-09 23:22:00,37.0,36.0,-100.00,North,5,6.0,11.0,96,0.00,,,-99.99,,2013-03-10 05:22:00,
2013-03-09 23:31:00,37.0,36.0,-100.00,NE,35,7.0,11.0,97,0.00,,,-99.99,,2013-03-10 05:31:00,
2013-03-09 23:42:00,37.0,36.0,-100.00,NE,35,7.0,11.0,97,0.00,,,-99.99,,2013-03-10 05:42:00,
2013-03-09 23:52:00,36.0,36.0,-100.00,North,0,4.0,8.0,97,0.00,,,-99.99,,2013-03-10 05:52:00,